This demonstration page uses our WeatherBlox Daily Observations layout. Learn more.

Left ArrowRight Arrow

38.88101, -77.10428

Hourly Observations for July 14, 2021

Temp ( °F °C ) Dew Point ( °F °C ) Humidity (%) Winds ( mph kmh ) Pressure ( in mb ) Visibility ( mi km ) Precip ( " mm )
12:52 am 00:52 Mostly Cloudy 82 27.8 73 22.8 74 74 SSW 9 15 30.15 1021 10 16 N/A
1:52 am 01:52 Mostly Cloudy 81 27.2 73 22.8 77 77 S 8 13 30.15 1021 10 16 N/A
2:52 am 02:52 Mostly Cloudy 81 27.2 73 22.8 77 77 SSW 6 9 30.16 1021 10 16 N/A
3:52 am 03:52 Mostly Cloudy 80 26.7 71 21.7 74 74 SSW 7 11 30.16 1021 10 16 N/A
4:52 am 04:52 Mostly Cloudy 79 26.1 70 21.1 74 74 SW 5 7 30.17 1022 10 16 N/A
5:52 am 05:52 Mostly Clear 78 25.6 69 20.6 74 74 SSW 3 6 30.18 1022 10 16 N/A
6:52 am 06:52 Partly Cloudy 78 25.6 70 21.1 76 76 SSW 6 9 30.19 1022 10 16 N/A
7:52 am 07:52 Mostly Sunny 80 26.7 70 21.1 71 71 SSW 6 9 30.19 1022 10 16 N/A
8:52 am 08:52 Mostly Sunny 83 28.3 70 21.1 65 65 SW 6 9 30.20 1023 10 16 N/A
9:52 am 09:52 Mostly Sunny 87 30.6 68 20 53 53 W 5 7 30.19 1022 10 16 N/A
10:52 am 10:52 Mostly Sunny 89 31.7 64 17.8 43 43 N N/A 30.18 1022 10 16 N/A
11:52 am 11:52 Partly Cloudy 90 32.2 66 18.9 45 45 SW 8 13 30.17 1022 10 16 N/A
12:52 pm 12:52 Partly Cloudy 90 32.2 67 19.4 47 47 SSE 5 7 30.16 1021 10 16 N/A
1:52 pm 13:52 Mostly Cloudy 90 32.2 68 20 48 48 SSE 10 17 30.15 1021 10 16 N/A
2:52 pm 14:52 Mostly Cloudy 90 32.2 67 19.4 47 47 SSW 8 13 30.14 1021 9 14 N/A
3:52 pm 15:52 Mostly Cloudy 88 31.1 68 20 52 52 S 9 15 30.13 1020 10 16 N/A
4:22 pm 16:22 Cloudy with Light Rain 87 30.6 67 19.4 51 51 SW 10 17 30.13 1020 8 13 0.00 0.00
4:52 pm 16:52 Cloudy 83 28.3 69 20.6 63 63 SW 9 15 30.13 1020 10 16 0.00 0.00
5:52 pm 17:52 Cloudy with Light Rain 77 25 69 20.6 77 77 SSW 12 19 30.11 1020 7 11 0.00 0.00
6:52 pm 18:52 Mostly Cloudy 76 24.4 68 20 77 77 SSW 9 15 30.12 1020 10 16 0.00 0.00
7:52 pm 19:52 Mostly Cloudy 76 24.4 70 21.1 82 82 S 9 15 30.14 1021 10 16 N/A
8:15 pm 20:15 Mostly Cloudy 75 23.9 70 21.1 84 84 S 14 22 30.15 1021 10 16 N/A
8:46 pm 20:46 Mostly Cloudy 75 24 70 21 83 83 SW 10 17 30.16 1021 10 16 N/A
8:52 pm 20:52 Mostly Cloudy 75 23.9 69 20.6 82 82 SSW 8 13 30.16 1021 10 16 N/A
9:52 pm 21:52 Mostly Cloudy 74 23.3 69 20.6 85 85 SW 9 15 30.17 1022 10 16 N/A
10:52 pm 22:52 Mostly Cloudy 74 23.3 69 20.6 85 85 N N/A 30.16 1021 10 16 N/A
11:52 pm 23:52 Mostly Cloudy 75 23.9 69 20.6 82 82 SSW 7 11 30.16 1021 10 16 N/A

Powered by AerisWeather